| time (UTC) | temp C | wind direction | speed KPH | gust KPH | rain 1hr cm | rain 24hr cm | rain mn cm | humidity % | barometer mb |
| 20260504011532 | 11 | 136 | 0.0 | 3.2 | 0.00 | 0.00 | 0.00 | 67 | 1015.1 |
| 20260504010029 | 12 | 68 | 0.0 | 1.6 | 0.00 | 0.00 | 0.00 | 62 | 1015.0 |
| 20260504004530 | 13 | 68 | 0.0 | 1.6 | 0.00 | 0.00 | 0.00 | 57 | 1014.9 |
| 20260504003032 | 15 | 68 | 0.0 | 0.0 | 0.00 | 0.00 | 0.00 | 51 | 1014.6 |
| 20260504001531 | 15 | 68 | 0.0 | 1.6 | 0.00 | 0.00 | 0.00 | 50 | 1014.6 |
| 20260504000025 | 16 | 67 | 0.0 | 1.6 | 0.00 | 0.00 | 0.00 | 49 | 1014.8 |
| 20260503234526 | 16 | 127 | 0.0 | 3.2 | 0.00 | 0.00 | 0.00 | 47 | 1014.9 |
| 20260503233034 | 16 | 127 | 0.0 | 1.6 | 0.00 | 0.00 | 0.00 | 46 | 1015.0 |
| 20260503231521 | 17 | 110 | 0.0 | 3.2 | 0.00 | 0.00 | 0.00 | 44 | 1015.2 |
| 20260503230020 | 17 | 219 | 0.0 | 4.8 | 0.00 | 0.00 | 0.00 | 41 | 1015.3 |
| 20260503224519 | 17 | 210 | 1.6 | 4.8 | 0.00 | 0.00 | 0.00 | 42 | 1015.6 |
| 20260503223017 | 17 | 84 | 1.6 | 3.2 | 0.00 | 0.00 | 0.00 | 41 | 1015.7 |
| 20260503221526 | 17 | 258 | 1.6 | 16.1 | 0.00 | 0.00 | 0.00 | 41 | 1015.7 |
| 20260503220014 | 17 | 49 | 1.6 | 11.3 | 0.00 | 0.00 | 0.00 | 44 | 1016.0 |
| 20260503214514 | 17 | 150 | 1.6 | 8.0 | 0.00 | 0.00 | 0.00 | 41 | 1016.0 |
| 20260503213011 | 17 | 249 | 3.2 | 11.3 | 0.00 | 0.00 | 0.00 | 41 | 1016.2 |
| 20260503211510 | 17 | 241 | 3.2 | 12.9 | 0.00 | 0.00 | 0.00 | 43 | 1016.3 |
| 20260503210009 | 18 | 255 | 6.4 | 19.3 | 0.00 | 0.00 | 0.00 | 40 | 1016.6 |
| 20260503204509 | 17 | 150 | 3.2 | 16.1 | 0.00 | 0.00 | 0.00 | 36 | 1016.7 |
| 20260503203006 | 17 | 281 | 4.8 | 17.7 | 0.00 | 0.00 | 0.00 | 38 | 1016.8 |
| 20260503201505 | 17 | 287 | 4.8 | 20.9 | 0.00 | 0.00 | 0.00 | 42 | 1017.1 |
| 20260503200005 | 17 | 223 | 6.4 | 20.9 | 0.00 | 0.00 | 0.00 | 41 | 1017.4 |
| 20260503194504 | 17 | 273 | 6.4 | 19.3 | 0.00 | 0.00 | 0.00 | 42 | 1017.7 |
| 20260503193002 | 17 | 303 | 1.6 | 11.3 | 0.00 | 0.00 | 0.00 | 46 | 1017.9 |
| 20260503191501 | 17 | 260 | 4.8 | 17.7 | 0.00 | 0.00 | 0.00 | 42 | 1018.2 |
| 20260503190000 | 17 | 231 | 0.0 | 6.4 | 0.00 | 0.00 | 0.00 | 49 | 1018.2 |
| 20260503184600 | 16 | 217 | 1.6 | 12.9 | 0.00 | 0.00 | 0.00 | 51 | 1018.4 |
| 20260503183058 | 16 | 270 | 3.2 | 11.3 | 0.00 | 0.00 | 0.00 | 45 | 1018.6 |
| 20260503181556 | 16 | 246 | 0.0 | 4.8 | 0.00 | 0.00 | 0.00 | 46 | 1018.8 |
| 20260503180101 | 15 | 75 | 8.0 | 16.1 | 0.00 | 0.00 | 0.00 | 46 | 1019.0 |
| 20260503174559 | 15 | 245 | 1.6 | 12.9 | 0.00 | 0.00 | 0.00 | 45 | 1019.5 |
| 20260503173057 | 15 | 262 | 3.2 | 11.3 | 0.00 | 0.00 | 0.00 | 46 | 1019.4 |
| 20260503171553 | 15 | 214 | 1.6 | 12.9 | 0.00 | 0.00 | 0.00 | 49 | 1019.7 |
| 20260503090104 | 4 | 283 | 0.0 | 3.2 | 0.00 | 0.00 | 0.00 | 91 | 1018.4 |
| 20260503081550 | 5 | 283 | 0.0 | 0.0 | 0.00 | 0.00 | 0.00 | 90 | 1018.1 |
| 20260503071556 | 6 | 320 | 0.0 | 0.0 | 0.00 | 0.00 | 0.00 | 86 | 1017.3 |
| 20260503054531 | 8 | 320 | 0.0 | 0.0 | 0.00 | 0.00 | 0.00 | 77 | 1016.9 |
| 20260503053022 | 8 | 320 | 0.0 | 0.0 | 0.00 | 0.00 | 0.00 | 79 | 1016.7 |
| 20260503051521 | 8 | 320 | 0.0 | 0.0 | 0.00 | 0.00 | 0.00 | 75 | 1016.8 |
| 20260503050033 | 8 | 320 | 0.0 | 0.0 | 0.00 | 0.00 | 0.00 | 79 | 1016.8 |
| 20260503044520 | 8 | 320 | 0.0 | 0.0 | 0.00 | 0.00 | 0.00 | 75 | 1016.6 |
| 20260503043016 | 9 | 320 | 1.6 | 3.2 | 0.00 | 0.00 | 0.00 | 72 | 1016.7 |
| 20260503041512 | -17 | 199 | 0.0 | 0.0 | 0.00 | 0.00 | 0.00 | 1016.5 | |
| 20260503040007 | 10 | 153 | 1.6 | 3.2 | 0.00 | 0.00 | 0.00 | 64 | 1016.5 |
| 20260503034507 | 11 | 224 | 0.0 | 1.6 | 0.00 | 0.00 | 0.00 | 64 | 1016.6 |
| 20260503033006 | 11 | 224 | 0.0 | 3.2 | 0.00 | 0.00 | 0.00 | 60 | 1016.4 |
| 20260503031506 | 11 | 306 | 4.8 | 16.1 | 0.00 | 0.00 | 0.00 | 58 | 1016.4 |
| 20260503030003 | 12 | 271 | 6.4 | 19.3 | 0.00 | 0.00 | 0.00 | 57 | 1016.3 |
| 20260503024503 | 12 | 280 | 1.6 | 8.0 | 0.00 | 0.00 | 0.00 | 59 | 1016.1 |
| 20260503023100 | 12 | 322 | 3.2 | 9.7 | 0.00 | 0.00 | 0.00 | 58 | 1015.9 |
| 20260503021601 | 12 | 346 | 1.6 | 9.7 | 0.00 | 0.00 | 0.00 | 58 | 1015.8 |
| 20260503020058 | 12 | 30 | 4.8 | 11.3 | 0.00 | 0.00 | 0.00 | 57 | 1015.5 |
| 20260503014609 | 12 | 281 | 1.6 | 9.7 | 0.00 | 0.00 | 0.00 | 57 | 1015.3 |
| 20260503013053 | 12 | 2 | 4.8 | 12.9 | 0.00 | 0.00 | 0.00 | 54 | 1015.1 |